OPS 4682 DEB, 14715

Orbit data source: Space-Track

OPS 4682 DEB, 14715 is space debris in LEO originally from a launch on Sat, 03 Apr 1965 UTC launched from the Air Force Western Test Range (AFWTR). Debris objects in space refer to the collection of defunct objects orbiting the Earth. Examples of debris include non-operational satellites, rocket bodies, and fragments generated from explosions, collisions, or faulty payload assembly.

Loading next visibility...
Identifier
14715, 1965-027N
Orbit
LEO
Country
Flag of USUS
Related business
Manufacturer
Unknown
Mission
Spacecraft
Bus & Motor
Unknown
Mass
Unknown
Launch date (UTC)
1965-04-03 (61 years ago)
Launch vehicle
Unknown
Launch site
Air Force Western Test Range (AFWTR)
Object type
Payload
Rocket body
Debris
Shape & HBR
Unknown shape, 0.1 m
Radar Cross Section
Small (<0.1 m²)

Expand to show TLE details & history
Last TLE update: 8 hours ago

TLE from 8 hours ago
0 OPS 4682 DEB
1 14715U 65027N   26036.30630340 -.00000808  00000-0 -28375-2 0  9999
2 14715  90.2394 346.2115 0038722 121.2927  33.4989 12.96568312991845
Epoch: 2026-02-05T07:21Z
TLE epoch observation values (Epoch: 2026-02-05T07:21:04.613Z)
Latitude
24.98753°
Longitude
-79.40713°
Altitude
1,253.897 km
Speed
7.242 km/s
True Right ascension
11h 05m 17s
True Declination
24° 51' 53"
Sunlit
Object was in full shadow at epoch
Visualization orbit readout
Latitude
Unknown
Longitude
Unknown
Altitude
Unknown
Speed
Unknown
Apparent Right ascension
Unknown
Apparent Declination
Unknown
Sunlit
N/A
Visualization observer readout
Local Sidereal Time
16:56:34
Azimuth
Unknown
Elevation
Unknown
Doppler factor
Unknown
Orbital elements
Apogee altitude
1,302.319 km
Perigee altitude
1,243.068 km
Semi-major axis
7,650.831 km
Eccentricity
0.00387
Inclination
90.2394°
RAAN
346.2115°
Arg. of periapsis
121.2927°
True anomaly
33.74479°
Mean anomaly
33.4989°
Eccentric anomaly
33.62175°
Mean motion
3.24325 °/min
Orbital period
111 mins
BSTAR
-0.0028375
Loading maneuver chart data...
Computing Atmospheric mass density...
Loading historical data...
Loading historical data...
Loading historical data...
Loading historical data...
Loading historical data...
Loading historical data...
Loading historical data...

Documentation

Showing up to 5 results
|